Content
SEND FEEDBACK

Daily
Averages
Monthly
Summary
French Polynesia

PAPEETE, FRENCH POLYNESIA


Home > Oceania > French Polynesia
Elevation: 7 feet     Latitude: 17 33S     Longitude: 149 36W

WEATHER
 
SELECT A DAY
Number of Records: 208,734;   Date Range: 6/30/96 - 8/31/14
 
SHARE

PRINT THIS DATA

[ ← Previous Day ]
WEATHER ALMANAC - APRIL 21, 2013
[ Next Day → ]
[ °C ]   °F
Weather ElementAverageHighLow
Temperature80.3 °F86 °F (10:30 am)75 °F (8:00 am)
Dewpoint74.3 °F77 °F (11:30 am)72 °F (5:00 am)
Humidity81.7 %94 % (2:00 am)65 % (11:00 am)
Barometer29.90 in29.95 in (8:30 am)29.86 in (1:00 am)
Wind Speed5.6 mph11.5 mph (7:00 am)
Wind Gust24.2 mph (1:30 am)
Weather ElementAverage
Visibility6.5 mi
Wind DirectionENE (82 °)

Weather ElementTotal
Precipitation---
Cooling Degree Days15.5 (Base 65)
Growing Degree Days30.5 (Base 50)
Averaged from 54 records on April 21, 2013
WEATHER CONDITIONS BREAKOUT
WIND DIRECTION BREAKOUT
WEATHER BY HOUR - APRIL 21, 2013
[ °C ]   °F
Local TimeTemperatureDewpointHumidityBarometerVisibilityWind DirectionWind SpeedGust SpeedPrecipitationEventsConditions
12:30 AM77.0 °F73.4 °F89 %29.89 in6.2 miSouth (170°)4.6 mphRain-ThunderstormLight Thunderstorms and Rain
1:00 AM78.8 °F75.2 °F89 %29.86 in6.2 miEast (100°)6.9 mphRain-ThunderstormLight Thunderstorms and Rain
1:30 AM78.8 °F75.2 °F89 %29.86 in2.5 miSE (140°)8.1 mph24.2 mphRain-ThunderstormThunderstorms and Rain
2:00 AM77.0 °F75.0 °F90 %29.88 in7.0 miSSW (200°)4.6 mphRain-ThunderstormThunderstorms and Rain
2:00 AM77.0 °F75.2 °F94 %29.86 in6.2 miSSW (200°)4.6 mphRain-ThunderstormLight Thunderstorms and Rain
2:30 AM77.0 °F73.4 °F89 %29.86 in6.2 miVariable3.5 mphRain-ThunderstormLight Thunderstorms and Rain
3:00 AM77.0 °F73.4 °F89 %29.86 in6.2 miNorth (350°)4.6 mphRain-ThunderstormLight Thunderstorms and Rain
3:30 AM77.0 °F73.4 °F89 %29.86 in6.2 miEast (90°)5.8 mphOvercast
4:00 AM77.0 °F73.4 °F89 %29.86 inEast (90°)4.6 mphOvercast
4:30 AM77.0 °F73.4 °F89 %29.86 inEast (80°)5.8 mphMostly Cloudy
5:00 AM77.0 °F72.0 °F82 %29.87 inEast (100°)4.6 mphClear
5:00 AM77.0 °F73.4 °F89 %29.86 inEast (100°)4.6 mphMostly Cloudy
5:30 AM77.0 °F73.4 °F89 %29.89 inVariable3.5 mphMostly Cloudy
6:00 AM77.0 °F73.4 °F89 %29.89 in1.9 miWest (270°)9.2 mph20.7 mphRainRain
6:30 AM75.2 °F73.4 °F94 %29.89 in0.9 miNE (50°)6.9 mphRainRain
7:00 AM75.2 °F73.4 °F94 %29.92 in0.9 miNNE (20°)11.5 mphRainLight Rain
7:30 AM75.2 °F73.4 °F94 %29.92 in0.3 miNNW (340°)4.6 mphRainRain
8:00 AM75.0 °F73.0 °F92 %29.94 in9.0 miEast (100°)5.8 mphRainLight Rain
8:00 AM75.2 °F73.4 °F94 %29.92 in6.2 miEast (100°)5.8 mphScattered Clouds
8:30 AM77.0 °F75.2 °F94 %29.95 in6.2 miESE (110°)5.8 mphPartly Cloudy
9:00 AM82.4 °F75.2 °F79 %29.95 in6.2 miEast (80°)5.8 mphScattered Clouds
9:30 AM84.2 °F75.2 °F74 %29.95 in6.2 miNE (40°)5.8 mphScattered Clouds
10:00 AM84.2 °F75.2 °F74 %29.95 in6.2 miNorth (10°)3.5 mphScattered Clouds
10:30 AM86.0 °F75.2 °F70 %29.95 in6.2 miNNE (20°)6.9 mphScattered Clouds
11:00 AM85.0 °F75.0 °F65 %29.94 in9.0 miNNE (20°)2.3 mphPartly Cloudy
11:00 AM86.0 °F75.2 °F70 %29.92 in6.2 miVariable2.3 mphScattered Clouds
11:30 AM84.2 °F77.0 °F79 %29.92 in6.2 miNE (50°)10.4 mphMostly Cloudy
12:00 PM84.2 °F75.2 °F74 %29.92 in6.2 miNE (50°)10.4 mphMostly Cloudy
12:30 PM84.2 °F77.0 °F79 %29.89 in6.2 miNE (50°)11.5 mphMostly Cloudy
1:00 PM84.2 °F75.2 °F74 %29.89 in6.2 miENE (60°)8.1 mphScattered Clouds
2:00 PM86.0 °F76.0 °F66 %29.88 in16.0 miNNE (30°)8.1 mphPartly Cloudy
2:00 PM86.0 °F77.0 °F74 %29.86 in6.2 miNNE (30°)8.1 mphScattered Clouds
2:30 PM86.0 °F77.0 °F74 %29.86 in6.2 miNNE (30°)8.1 mphScattered Clouds
3:00 PM86.0 °F77.0 °F74 %29.86 in6.2 miNorth (10°)6.9 mphScattered Clouds
3:30 PM86.0 °F73.4 °F66 %29.86 in6.2 miNNE (20°)5.8 mphScattered Clouds
4:00 PM86.0 °F73.4 °F66 %29.86 in6.2 miNorth (10°)5.8 mphScattered Clouds
4:30 PM84.2 °F75.2 °F74 %29.86 in6.2 miNNE (30°)6.9 mphScattered Clouds
5:00 PM83.0 °F75.0 °F71 %29.89 in16.0 miNorth (350°)11.5 mphPartly Cloudy
5:00 PM82.4 °F75.2 °F79 %29.89 in6.2 miNorth (350°)11.5 mphScattered Clouds
5:30 PM82.4 °F73.4 °F74 %29.89 in6.2 miNorth (10°)5.8 mphScattered Clouds
6:00 PM82.4 °F73.4 °F74 %29.89 in6.2 miNE (40°)3.5 mphScattered Clouds
6:30 PM80.6 °F73.4 °F79 %29.92 in6.2 miNE (40°)3.5 mphScattered Clouds
7:00 PM80.6 °F75.2 °F84 %29.92 in6.2 miVariable1.2 mphScattered Clouds
7:30 PM80.6 °F73.4 °F79 %29.92 in6.2 miVariable2.3 mphScattered Clouds
8:00 PM79.0 °F73.0 °F76 %29.94 in12.0 miEast (80°)3.5 mphScattered Clouds
8:00 PM78.8 °F73.4 °F83 %29.92 in6.2 miEast (80°)3.5 mphScattered Clouds
8:30 PM78.8 °F73.4 °F83 %29.92 in6.2 miEast (100°)3.5 mphMostly Cloudy
9:00 PM78.8 °F73.4 °F83 %29.92 in6.2 miEast (100°)3.5 mphMostly Cloudy
9:30 PM78.8 °F75.2 °F89 %29.95 in6.2 miVariable2.3 mphMostly Cloudy
10:00 PM78.8 °F73.4 °F83 %29.95 in6.2 miVariable2.3 mphMostly Cloudy
10:30 PM78.8 °F73.4 °F83 %29.95 in6.2 miVariable2.3 mphMostly Cloudy
11:00 PM78.0 °F73.0 °F82 %29.94 in12.0 miSE (130°)3.5 mphScattered Clouds
11:00 PM78.8 °F73.4 °F83 %29.92 in6.2 miVariable3.5 mphMostly Cloudy
11:30 PM77.0 °F73.4 °F89 %29.92 in6.2 miVariable1.2 mphMostly Cloudy
Hourly data recorded from NTAA, located miles away from Papeete, French Polynesia







STORIES FROM OUR PARTNERS